IGO597E VOMM-VOCI

Flight info

Callsign IGO597E
Flight time N/A
Altitude 38000
Route TEGUT2A TEGUT R457 TTR J16 MATPA MATPA1D
Aircraft A20N/M-SDE2E3FGHIRWXY/LB1

Departure

Time 2026-04-24 12:31
Airport Chennai International Airport (VOMM)

Arrival

Time N/A
Airport Cochin International Airport (VOCI)
Time Latitude Longitude Altitude Speed Heading
2026-04-24 12:01 12.98487 80.16674 55 ft 0 kts 159°
2026-04-24 12:07 12.98488 80.16674 55 ft 0 kts 159°
2026-04-24 12:21 12.98492 80.16672 55 ft 2 kts 159°
2026-04-24 12:21 12.98508 80.16667 52 ft 2 kts 166°
2026-04-24 12:21 12.98524 80.16663 51 ft 2 kts 176°
2026-04-24 12:21 12.98541 80.16664 50 ft 2 kts 202°
2026-04-24 12:22 12.98554 80.16674 48 ft 2 kts 234°
2026-04-24 12:22 12.98561 80.16687 48 ft 1 kts 248°
2026-04-24 12:22 12.98563 80.16691 55 ft 0 kts 249°
2026-04-24 12:25 12.98558 80.16677 49 ft 4 kts 249°
2026-04-24 12:26 12.98542 80.16634 52 ft 8 kts 249°
2026-04-24 12:26 12.98517 80.16566 51 ft 12 kts 249°
2026-04-24 12:26 12.98483 80.16475 50 ft 15 kts 249°
2026-04-24 12:26 12.98442 80.16364 52 ft 18 kts 249°
2026-04-24 12:27 12.98398 80.16239 51 ft 19 kts 250°
2026-04-24 12:27 12.98348 80.16103 54 ft 21 kts 248°
2026-04-24 12:27 12.98296 80.15963 52 ft 19 kts 248°
2026-04-24 12:27 12.98310 80.15833 53 ft 20 kts 287°
2026-04-24 12:28 12.98352 80.15688 55 ft 22 kts 285°
2026-04-24 12:28 12.98386 80.15561 52 ft 0 kts 285°
2026-04-24 12:29 12.98387 80.15556 50 ft 4 kts 285°
2026-04-24 12:29 12.98403 80.15495 53 ft 12 kts 285°
2026-04-24 12:29 12.98461 80.15450 56 ft 12 kts 12°
2026-04-24 12:29 12.98492 80.15497 56 ft 0 kts 70°
2026-04-24 12:30 12.98554 80.15668 54 ft 62 kts 69°
2026-04-24 12:30 12.98795 80.16309 51 ft 124 kts 69°
2026-04-24 12:31 12.99133 80.17265 153 ft 159 kts 74°
2026-04-24 12:31 12.99551 80.18325 666 ft 162 kts 71°
2026-04-24 12:31 13.00017 80.19368 1253 ft 163 kts 69°
2026-04-24 12:31 13.00479 80.20420 1856 ft 163 kts 70°
2026-04-24 12:32 13.00980 80.21538 2251 ft 181 kts 70°
2026-04-24 12:32 13.01488 80.22802 2604 ft 201 kts 79°
2026-04-24 12:32 13.01420 80.24250 3059 ft 213 kts 114°
2026-04-24 12:32 13.00508 80.25474 3479 ft 232 kts 146°
2026-04-24 12:33 12.98937 80.26062 4007 ft 255 kts 174°
2026-04-24 12:33 12.97127 80.25745 4636 ft 274 kts 201°
2026-04-24 12:33 12.95445 80.24773 5475 ft 283 kts 212°
2026-04-24 12:33 12.93839 80.23577 6327 ft 291 kts 216°
2026-04-24 12:34 12.92196 80.22291 7189 ft 295 kts 216°
2026-04-24 12:34 12.90558 80.21025 8018 ft 300 kts 215°
2026-04-24 12:34 12.88865 80.19748 8653 ft 305 kts 214°
2026-04-24 12:34 12.87119 80.18455 9283 ft 310 kts 214°
2026-04-24 12:35 12.85359 80.17165 9891 ft 314 kts 214°
2026-04-24 12:35 12.83534 80.15833 10476 ft 327 kts 214°
2026-04-24 12:35 12.81662 80.14468 11068 ft 339 kts 214°
2026-04-24 12:35 12.79703 80.13037 11677 ft 350 kts 214°
2026-04-24 12:36 12.77684 80.11560 12296 ft 361 kts 214°
2026-04-24 12:36 12.75618 80.10048 12920 ft 371 kts 214°
2026-04-24 12:36 12.73479 80.08481 13562 ft 378 kts 214°
2026-04-24 12:36 12.71340 80.06915 14130 ft 380 kts 214°
2026-04-24 12:37 12.69209 80.05355 14700 ft 381 kts 214°
2026-04-24 12:37 12.67039 80.03768 15289 ft 384 kts 214°
2026-04-24 12:37 12.64862 80.02174 15888 ft 385 kts 214°
2026-04-24 12:37 12.62664 80.00566 16493 ft 387 kts 214°
2026-04-24 12:38 12.60459 79.98954 17122 ft 390 kts 214°
2026-04-24 12:38 12.58235 79.97328 17756 ft 392 kts 214°
2026-04-24 12:38 12.56045 79.95727 18343 ft 394 kts 214°
2026-04-24 12:39 12.50034 79.91336 19855 ft 400 kts 214°
2026-04-24 12:39 12.47777 79.89687 20439 ft 402 kts 214°
2026-04-24 12:39 12.44740 79.87471 21240 ft 403 kts 214°
2026-04-24 12:40 12.43200 79.86347 21653 ft 404 kts 214°
2026-04-24 12:40 12.40151 79.84123 22482 ft 405 kts 214°
2026-04-24 12:40 12.38598 79.82990 22921 ft 405 kts 214°
2026-04-24 12:40 12.36293 79.81310 23460 ft 409 kts 214°
2026-04-24 12:41 12.33971 79.79616 23687 ft 418 kts 214°
2026-04-24 12:41 12.31623 79.77905 24178 ft 418 kts 215°
2026-04-24 12:41 12.29250 79.76177 24696 ft 418 kts 215°
2026-04-24 12:41 12.26894 79.74461 25120 ft 420 kts 215°
2026-04-24 12:42 12.24502 79.72718 25569 ft 422 kts 215°
2026-04-24 12:42 12.22089 79.70960 26043 ft 423 kts 216°
2026-04-24 12:42 12.19727 79.69239 26488 ft 424 kts 216°
2026-04-24 12:42 12.17318 79.67484 26926 ft 425 kts 216°
2026-04-24 12:43 12.14902 79.65724 27358 ft 427 kts 216°
2026-04-24 12:43 12.12480 79.63961 27772 ft 428 kts 216°
2026-04-24 12:43 12.10045 79.62189 28193 ft 429 kts 216°
2026-04-24 12:43 12.07607 79.60414 28620 ft 430 kts 216°
2026-04-24 12:44 12.05165 79.58637 28997 ft 432 kts 216°
2026-04-24 12:44 12.02709 79.56851 29376 ft 433 kts 216°
2026-04-24 12:44 12.00272 79.55078 29758 ft 434 kts 216°
2026-04-24 12:44 11.97804 79.53283 30093 ft 436 kts 216°
2026-04-24 12:45 11.95325 79.51480 30404 ft 438 kts 216°
2026-04-24 12:45 11.92838 79.49673 30714 ft 439 kts 216°
2026-04-24 12:45 11.90344 79.47860 31055 ft 440 kts 216°
2026-04-24 12:45 11.87851 79.46048 31454 ft 439 kts 216°
2026-04-24 12:46 11.85355 79.44236 31874 ft 438 kts 216°
2026-04-24 12:46 11.82878 79.42437 32299 ft 436 kts 216°
2026-04-24 12:46 11.80408 79.40643 32722 ft 435 kts 216°
2026-04-24 12:46 11.77984 79.38882 33096 ft 433 kts 216°
2026-04-24 12:47 11.75509 79.37085 33497 ft 432 kts 215°
2026-04-24 12:47 11.73062 79.35308 33857 ft 431 kts 215°
2026-04-24 12:47 11.70621 79.33535 34175 ft 429 kts 215°
2026-04-24 12:47 11.68183 79.31766 34505 ft 427 kts 215°
2026-04-24 12:48 11.65802 79.30038 34832 ft 426 kts 215°
2026-04-24 12:48 11.63354 79.28263 35156 ft 424 kts 216°
2026-04-24 12:48 11.60960 79.26528 35473 ft 423 kts 216°
2026-04-24 12:48 11.58555 79.24798 35797 ft 421 kts 214°
2026-04-24 12:49 11.56071 79.23196 36108 ft 420 kts 212°
2026-04-24 12:49 11.53634 79.21638 36421 ft 419 kts 213°
2026-04-24 12:49 11.51173 79.20059 36734 ft 417 kts 213°
2026-04-24 12:49 11.48730 79.18492 37045 ft 416 kts 213°
2026-04-24 12:50 11.46270 79.16914 37325 ft 415 kts 213°
2026-04-24 12:50 11.43835 79.15352 37620 ft 414 kts 213°
2026-04-24 12:50 11.41393 79.13787 37744 ft 413 kts 213°
2026-04-24 12:51 11.36531 79.10671 37780 ft 412 kts 213°